User: anonymous
Location: Brno
(49.2000°N, 16.6330°E)
Time: 09:56:50
(UTC+02:00)
Language:

Cosmos 1459 Rocket - Orbit

View from above orbital plane
View from above orbital plane
View from above satellite
View from above satellite

Ground track
Ground track

The orbit data is extracted from the following two-line orbital elements,

1 14059U 83042B   14260.47484542  .00000169  00000-0  15144-3 0  3872
2 14059 082.9684 086.8586 0042423 203.8734 183.1142 13.78463177577478
Epoch (UTC): 17 September 2014 11:23:46
Eccentricity: 0.0042423
inclination: 82.9684°
perigee height: 938 km
apogee height: 1000 km
right ascension of ascending node: 86.8586°
argument of perigee: 203.8734°
revolutions per day: 13.78463177
mean anomaly at epoch: 183.1142°
orbit number at epoch: 57747

The dashed part of the orbit path shows where the satellite is in the earth's shadow,  

DLR